Regional Weather Roundup
Issued by NWS Grand Forks, ND

Home | Current Version | Previous Version | Graphics & Text | Print | Product List | Glossary On
Versions: 1 2 3 4 5 6 7 8 9 10 11 12 13 14 15 16 17 18 19 20 21 22 23 24 25 26 27 28 29 30 31 32 33 34 35 36 37 38 39 40 41 42 43 44 45 46 47 48 49 50
502
ASUS43 KFGF 261631
RWRFGF
PRAIRIE TO PINES  WEATHER ROUNDUP
NATIONAL WEATHER SERVICE EASTERN NORTH DAKOTA/GRAND FORKS ND
1000 AM CST SUN FEB 26 2017

 **SATELLITE DATA USED TO AUGMENT SKY COVER AT AUTOMATED STATIONS**
 *****  WEATHER ACROSS EASTERN NORTH DAKOTA  *****

CITY           SKY/WX    TMP DP  RH WIND       PRES   REMARKS
GRAND FORKS    FAIR      11   0  61 W7        29.84R WCI   0
GRAND FRKS AFB FAIR      11   2  65 NW7       29.83R WCI   0
DEVILS LAKE    FAIR       2  -1  88 W5        29.80R WCI  -8
FARGO          FAIR      14   6  70 MISG      29.85R
WAHPETON ARPT    N/A     18   7  62 NW8       29.87R WCI   7
$$

 ***** WEATHER ACROSS CENTRAL AND WESTERN NORTH DAKOTA  *****

CITY           SKY/WX    TMP DP  RH WIND       PRES   REMARKS
BISMARCK       CLOUDY    16  11  80 SE6       29.79R WCI   7
MINOT          FLURRIES   9   5  84 SW8       29.76R WCI  -3
JAMESTOWN      FAIR      16   8  71 CALM      29.79R
MINOT AFB      FAIR       9   6  86 SW7       29.76R WCI  -2
GARRISON         N/A     11   8  88 CALM      29.76R
WILLISTON      LGT SNOW  16  12  84 NE3       29.73S FOG
DICKINSON      FAIR      22  16  78 W9        29.66R WCI  12
HETTINGER      CLOUDY    25  18  74 W17       29.71S WCI  12
$$

 *****  OTHER AIRPORT OBSERVATIONS IN OUR AREA  *****

CITY           SKY/WX    TMP DP  RH WIND       PRES   REMARKS
WALHALLA       NOT AVBL
GRAFTON AIRPOR FAIR       9   3  78 W5        29.85R WCI   0
VALLEY CITY AR FAIR      16  10  79 N5        29.83R WCI   9
CANDO          NOT AVBL
CAVALIER APRT    N/A     10   1  67 NW6       29.82R WCI   1
GWINNER        FAIR      19  12  73 N5        29.84S WCI  13
SHEYENNE NWR     N/A     16   7  66 N6        29.95S WCI   7
ROLLA          FAIR       9   5  85 SW5       29.75R WCI   0
 ***** THE ABOVE OBSERVATIONS ARE NON NWS ARE NOT QUALITY
       CONTROLLED AND MAY MIS-REPORT RAIN FOR SNOW...
$$

  *****  WEATHER ACROSS NORTHERN MINNESOTA  *****

CITY           SKY/WX    TMP DP  RH WIND       PRES   REMARKS
FLAG ISLAND    FAIR      10   1  67 NW9G17    29.75R WCI  -2
WARROAD        FAIR      12   3  67 SW6       29.78R WCI   3
ROSEAU         FAIR      10   3  72 W8        29.79R WCI  -1
HALLOCK        FAIR       9   1  72 W3        29.83R
THF RVR FALLS    N/A     14   6  70 MISG        N/A
BAUDETTE       FAIR      10  -2  58 NW9       29.75R WCI  -3
WASKISH        FAIR      10   3  72 W6        29.78R WCI   1
CROOKSTON      FAIR      10   7  85 NW5       29.85R WCI   2
STEPHEN NDAWN    N/A      9   3  78 W5          N/A  WCI   0
GREENBUSH NDAW   N/A      9   3  78 W6          N/A  WCI  -1
$$
  *****  WEATHER ACROSS CENTRAL AND WEST MINNESOTA  *****

CITY           SKY/WX    TMP DP  RH WIND       PRES   REMARKS
FOSSTON        FAIR      16   3  57 NW5       29.80R WCI   9
BEMIDJI        FAIR      11   4  71 NW6       29.77R WCI   2
PARK RAPIDS    FAIR      16   6  65 NW10      29.74R WCI   4
ELBOW LAKE     FAIR      13  11  90 NW12      29.83R WCI  -1
WADENA         FAIR      18  10  73 NW9       29.76R WCI   6
DETROIT LAKES  LGT SNOW  16  10  79 NW9       29.80R WCI   4
MOORHEAD       FAIR      12   5  73 NW9       29.86R WCI   0
FERGUS FALLS   FAIR      12  10  92 N9G16     29.87R WCI   0
MORRIS MN      FAIR      21  16  79 NW14G20   29.82R WCI   8
STAPLES        FAIR      18  10  73 NW10      29.76R WCI   6
$$
  *****  WEATHER ELSEWHERE ACROSS MINNESOTA  *****

CITY           SKY/WX    TMP DP  RH WIND       PRES   REMARKS
DULUTH         LGT SNOW  21  17  84 NW15      29.64R VSB 1   WCI   8
INTRNTL FALLS  FAIR      11  -1  58 W12       29.73R WCI  -3
ELY            LGT SNOW  14   9  79 NW8       29.66R WCI   3
CLOQUET        LGT SNOW  21  16  79 NW15G21   29.67R WCI   8
WHEATON        FAIR      18   9  68 NW10      29.89R WCI   6
BRAINERD       LGT SNOW  18  12  77 N14       29.74R WCI   4
HIBBING        LGT SNOW  13   8  81 NW14      29.70R WCI  -2
ALEXANDRIA     FAIR      21  12  68 N15G21    29.78R WCI   8
SAINT CLOUD    PTSUNNY   31  20  63 W21G29    29.74R WCI  18
MINNEAPOLIS    FAIR      30  20  66 SW14      29.78R WCI  19
$$

  *****  WEATHER ACROSS SOUTH DAKOTA  *****

CITY           SKY/WX    TMP DP  RH WIND       PRES   REMARKS
SIOUX FALLS    FAIR      28  21  75 W9        29.84R WCI  19
BROOKINGS      FAIR      29  23  78 NW10      29.80R WCI  20
WATERTOWN      FAIR      25  18  74 N9        29.79R WCI  15
HURON          FAIR      28  23  81 N7        29.84R WCI  21
SISSETON         N/A     19  14  81 N10       29.84R WCI   7
ABERDEEN       PTSUNNY   20  15  81 NE8       29.84R WCI  10
MITCHELL       FAIR      31  23  72 NW8       29.86R WCI  23
PIERRE         FAIR      26  19  74 SW9       29.81R WCI  17
MOBRIDGE       FAIR      20  14  77 SE7       29.76S WCI  11
RAPID CITY     FAIR      28  15  58 S5        29.78R WCI  23
$$

  *****  SOME WEATHER IN NEARBY STATES *****

CITY           SKY/WX    TMP DP  RH WIND       PRES   REMARKS
GLASGOW MT     PTSUNNY   19  15  84 NW10      29.73R WCI   7
GREAT FALLS MT LGT SNOW  23  19  85 NE10      29.73S FOG     WCI  12
CHEYENNE WY    FAIR      20   1  43 W16       29.78R WCI   6
SCOTTSBLUFF NE FAIR      15   4  61 NW5       29.86R WCI   8
OMAHA NE       FAIR      37  18  46 W13       29.93R
DES MOINES IA  FAIR      40  24  53 W21       29.92R
DAVENPORT IA   FAIR      37  21  52 SW21G26   29.95S
CHICAGO IL     PTSUNNY   35  16  45 S22       29.97F WCI  23
EAU CLAIRE WI  PTSUNNY   27  19  72 SW13      29.77R WCI  16
LA CROSSE WI   FAIR      34  21  59 SW10      29.82R
$$

  *****  SOME NATIONAL WEATHER *****

CITY           SKY/WX    TMP DP  RH WIND       PRES   REMARKS
LA GUARDIA NY  FAIR      41  17  38 NW18G29   29.99R
RALEIGH NC     FAIR      48  15  26 VRB7      30.20S
ATLANTA GA     FAIR      49  19  30 CALM      30.23R
NEW ORLEANS LA FAIR      60  44  55 E13       30.19R
OKLAHOMA CITY  CLOUDY    47  28  47 S17       29.91F
ALBUQUERQUE NM PTSUNNY   36  22  56 CALM      29.98R
SALT LAKE CITY FAIR      26  17  68 S12       29.95R WCI  16
LOS ANGELES CA LGT RAIN  49  46  90 E9        30.00S
BOISE ID       FAIR      31  17  56 SE22      29.82S WCI  18
SEATTLE WA     LGT RAIN  36  34  92 E10       29.69S
$$

*** WEATHER ACROSS MANITOBA...SASKATCHEWAN AND ONTARIO ***
                ***ONTARIO***

CITY           SKY/WX    TMP DP  RH WIND       PRES   REMARKS
GERALDTON      FLURRIES  12   7  79 NE3       29.58S
THUNDER BAY    FLURRIES  21  14  73 NW9       29.64F WCI  11
SIOUX LOOKOUT  FLURRIES   5  -2  72 NW14G20   29.65R WCI -12
TORONTO        PTSUNNY   32  14  47 W16G24    30.02S WCI  21
BIG TROUT LK   FLURRIES  -2  -6  84 W8        29.58S WCI -17
PICKLE LAKE    FLURRIES   7  -2  66 W6        29.57S WCI  -3
DRYDEN         CLOUDY     5  -2  72 W13G21    29.67R WCI -12
KENORA         PTSUNNY    9   0  66 W8        29.71R WCI  -4
$$
                *** MANITOBA***

CITY           SKY/WX    TMP DP  RH WIND       PRES   REMARKS
BRANDON        PTSUNNY    0  -6  78 W7        29.75S WCI -13
DAUPHIN        MOSUNNY   14   7  73 W7        29.71S WCI   4
ISLAND LAKE    MOSUNNY   -4  -9  77 W6        29.67R WCI -16
PILOT MOUND      N/A      5   0  78 W5          N/A  WCI  -4
THE PAS        LGT SNOW   3  -2  78 S3        29.65S
THOMPSON       MOSUNNY  -11 -18  70 NW6       29.71R WCI -25
WINNIPEG       MOSUNNY    5  -2  72 W7        29.79R WCI  -7
LYNN LAKE      SUNNY    -15 -20  76 N7        29.72R WCI -31
CHURCHILL      CRYSTALS -20 -26  76 NW14      29.70S WCI -44
GILLAM         FLURRIES -17 -24  70 W9        29.68R WCI -36
$$
                ***SASKATCHEWAN***

CITY           SKY/WX    TMP DP  RH WIND       PRES   REMARKS
ESTEVAN        CLOUDY    10   9  92 SW7       29.73R WCI   0
KINDERSLEY     MOSUNNY   18  12  79 NW10      29.75R WCI   6
LLOYDMINSTER   MOSUNNY    5  -2  72 N18G30    29.80R WCI -15
PRINCE ALBERT  PTSUNNY   10   1  67 NW9       29.73R WCI  -2
REGINA         FLURRIES  19  16  86 W13       29.70R WCI   7
YORKTON        CLOUDY    14  10  85 W10       29.66S WCI   1
N. BATTLEFORD  LGT SNOW  16  12  86 NW16      29.75R WCI   0
LA RONGE       FLURRIES   1  -6  71 N12G21    29.74R WCI -15
SASKATOON      PTSUNNY   14   9  79 NW13      29.76R WCI   0
SWIFT CURRENT  CLOUDY    14  12  92 W10       29.71R WCI   1
$$
NOTE: THESE ARE AUTOMATED STATIONS WITH LIMITED QUALITY CONTROL
      "FAIR" INDICATES FEW OR NO CLOUDS BELOW 12,000 FEET WITH NO
      SIGNIFICANT WEATHER AND/OR OBSTRUCTIONS TO VISIBILITY.
      SKY/WX - SKY CONDITION AND SIGNIFICANT WEATHER.
      TMP - AIR TEMPERATURE.    DP   - DEWPOINT TEMPERATURE.
      RH  - RELATIVE HUMIDITY.  PRES - PRESSURE.
      HX  - HEAT INDEX.         WCI  - WIND CHILL INDEX.
$




USA.gov is the U.S. government's official web portal to all federal, state and local government web resources and services.